Aydin, Turkey

12:11 AM +03 on December 13, 2017 (GMT +0300)
Cildir

Weather History for LTBD - August, 2013

Change the Weather History Date:

Wednesday, August 21, 2013

  Actual Average Record
Temperature  
Mean Temperature 85 °F -  
Max Temperature 99 °F - - ()
Min Temperature 72 °F - - ()
Cooling Degree Days 20    
Growing Degree Days 35 (Base 50)    
Moisture  
Dew Point 58 °F    
Average Humidity 41    
Maximum Humidity 78    
Minimum Humidity 17    
Precipitation  
Precipitation 0.00 in - - ()
Sea Level Pressure  
Sea Level Pressure 29.76 in    
Wind  
Wind Speed 6 mph ()    
Max Wind Speed 18 mph    
Max Gust Speed -    
Visibility 8.4 miles    
Events      
T = Trace of Precipitation, MM = Missing Value Source: Averaged Metar Reports

Daily Weather History Graph

Daily Weather History Graph

Search for Another Location

Airport or City:

Trip Planner

Search our weather history database for the weather conditions in past years. The results will help you decide how hot, cold, wet, or windy it might be!

Date:

Astronomy

Aug. 21, 2013 Rise Set
Actual Time 6:29 AM EEST 7:53 PM EEST
Civil Twilight 6:01 AM EEST 8:21 PM EEST
Nautical Twilight 5:28 AM EEST 8:54 PM EEST
Astronomical Twilight 4:53 AM EEST 9:28 PM EEST
Moon 7:52 PM EEST (8/21) 6:45 AM EEST (8/21)
Length of Visible Light 14h 19m
Length of Day
13h 24m
Full, 100% of the Moon is Illuminated
Aug 21
Full
Aug 28
Last Quarter
Sep 5
New
Sep 12
First Quarter
Sep 19
Full

Hourly Weather History & Observations

Time (EEST) Temp. Heat Index Dew Point Humidity Pressure Visibility Wind Dir Wind Speed Gust Speed Precip Events Conditions
3:00 AM 75 °F - 57 °F 43% 29.78 in - East 2.3 mph - -  
6:16 AM 68.0 °F - 60.8 °F 78% 29.77 in - East 5.8 mph - N/A   Clear
6:50 AM 68.0 °F - 60.8 °F 78% 29.77 in - East 5.8 mph - N/A   Clear
7:50 AM 73.4 °F - 57.2 °F 57% 29.77 in - ENE 4.6 mph - N/A   Clear
8:50 AM 78.8 °F - 57.2 °F 47% 29.80 in - ENE 8.1 mph - N/A   Clear
9:00 AM 77 °F - 56 °F 38% 29.80 in 12 mi ENE 3.5 mph - -  
9:50 AM 82.4 °F 82.0 °F 57.2 °F 42% 29.80 in - ENE 8.1 mph - N/A   Clear
10:50 AM 86.0 °F 84.9 °F 57.2 °F 37% 29.80 in - ENE 5.8 mph - N/A   Clear
11:50 AM 89.6 °F 87.7 °F 55.4 °F 31% 29.80 in - ENE 3.5 mph - N/A   Clear
12:50 PM 91.4 °F 89.4 °F 55.4 °F 29% 29.77 in 6.2 mi WNW 3.5 mph - N/A   Partly Cloudy
1:50 PM 93.2 °F 92.6 °F 59.0 °F 32% 29.77 in 6.2 mi West 5.8 mph - N/A   Partly Cloudy
2:50 PM 95.0 °F 93.7 °F 57.2 °F 28% 29.74 in 6.2 mi WSW 9.2 mph - N/A   Partly Cloudy
3:00 PM 98 °F - 57 °F 17% 29.75 in 12 mi WSW 3.5 mph - -   Scattered Clouds
3:50 PM 95.0 °F 95.2 °F 60.8 °F 32% 29.74 in 6.2 mi West 12.7 mph - N/A   Partly Cloudy
4:50 PM 93.2 °F 93.3 °F 60.8 °F 34% 29.71 in 6.2 mi West 17.3 mph - N/A   Partly Cloudy
5:50 PM 89.6 °F 88.9 °F 59.0 °F 36% 29.71 in - West 18.4 mph - N/A   Clear
6:50 PM 86.0 °F 85.4 °F 59.0 °F 40% 29.71 in - West 18.4 mph - N/A   Clear
7:50 PM 82.4 °F 82.5 °F 59.0 °F 45% 29.74 in - West 15.0 mph - N/A   Clear
9:00 PM 80 °F - 58 °F 36% 29.76 in 12 mi West 3.5 mph - -